カタログに戻る

STARLINK-37261

運用中通信VLEO
NORAD 68567·PAYLOAD·🇺🇸 United States

打ち上げ Apr 2, 2026 から Cape Canaveral Space Force Station

Loading…

次のパス (今後24時間)

TLE

最新Source: CelesTrak SupGP

元期: Sep 14, 2026, 23:17 UTC

1 68567C 26070AB  26257.97062500 -.00020845  00000+0 -61560-3 0  2576
2 68567  53.1592 199.2004 0001571  93.6368 250.8508 15.34414459    12

AllMySatでSTARLINK-37261をリアルタイム追跡

Download on the App Store